Location: Unspecified
(0.0000°N, 0.0000°E)
Time: 12:35:24
(UTC+00:00)

NUDT-PHONESAT - Pass Details

Date: 08 December 2017
Orbit: 494 x 513 km, 97.4° (Epoch: 20 January)

Event Time Altitude Azimuth Distance (km) Brightness Sun altitude
Rises 18:24:53 0° 186° (S) 2,574 ? -7.5°
Reaches altitude 10° 18:27:09 10° 198° (SSW) 1,691 ? -8.1°
Maximum altitude 18:30:19 28° 259° (WSW) 942 ? -8.8°
Drops below altitude 10° 18:33:29 10° 320° (NW) 1,688 ? -9.5°
Sets 18:35:45 0° 331° (NNW) 2,570 ? -10.0°
